Location: Apollinopolis Magna
(24.9792°N, 32.8772°E)
Time: 05:24:33
(UTC+00:00)

CZ-4 R/B - Pass Details

Date: 02 March 2021
Orbit: 532 x 597 km, 97.7° (Epoch: 12 April)

Event Time Altitude Azimuth Distance (km) Brightness Sun altitude
Rises 16:20:31 0° 156° (SSE) 2,662 4.6 -7.4°
Reaches altitude 10° 16:22:40 10° 151° (SSE) 1,773 3.7 -7.9°
Maximum altitude 16:26:20 47° 76° (ENE) 706 1.5 -8.7°
Drops below altitude 10° 16:30:03 10° 2° (N) 1,789 3.9 -9.6°
Sets 16:32:13 0° 357° (N) 2,688 4.9 -10.1°
